TimePST,TemperatureF,Dew PointF,Humidity,Sea Level PressureIn,VisibilityMPH,Wind Direction,Wind SpeedMPH,Gust SpeedMPH,PrecipitationIn,Events,Conditions,WindDirDegrees,DateUTC
12:56 AM,52.0,46.9,83,30.11,10.0,West,3.5,-,N/A,,Overcast,280,2013-03-03 08:56:00
1:56 AM,52.0,46.9,83,30.11,10.0,West,20.7,25.3,N/A,,Overcast,280,2013-03-03 09:56:00
2:56 AM,52.0,46.9,83,30.09,10.0,WNW,13.8,-,0.00,,Overcast,290,2013-03-03 10:56:00
3:56 AM,51.1,46.9,86,30.09,10.0,West,10.4,-,N/A,,Overcast,280,2013-03-03 11:56:00
4:56 AM,51.1,46.9,86,30.09,10.0,WNW,6.9,-,N/A,,Overcast,300,2013-03-03 12:56:00
5:56 AM,51.1,46.0,83,30.09,10.0,WNW,10.4,-,N/A,,Overcast,300,2013-03-03 13:56:00
6:56 AM,51.1,46.0,83,30.10,10.0,West,11.5,-,N/A,,Overcast,280,2013-03-03 14:56:00
7:56 AM,53.1,46.0,77,30.11,10.0,Calm,Calm,-,N/A,,Mostly Cloudy,0,2013-03-03 15:56:00
8:56 AM,55.0,46.0,72,30.11,10.0,NW,3.5,-,N/A,,Mostly Cloudy,320,2013-03-03 16:56:00
9:56 AM,55.0,46.0,72,30.12,10.0,West,16.1,-,N/A,,Mostly Cloudy,280,2013-03-03 17:56:00
10:56 AM,57.0,46.9,69,30.11,10.0,West,15.0,-,N/A,,Scattered Clouds,270,2013-03-03 18:56:00
11:56 AM,55.9,46.9,72,30.11,10.0,WNW,13.8,-,N/A,,Scattered Clouds,290,2013-03-03 19:56:00
12:56 PM,55.9,46.0,69,30.09,10.0,West,13.8,-,N/A,,Scattered Clouds,270,2013-03-03 20:56:00
1:56 PM,57.9,45.0,62,30.08,10.0,WNW,12.7,-,N/A,,Scattered Clouds,290,2013-03-03 21:56:00
2:56 PM,55.0,45.0,69,30.09,10.0,WSW,17.3,-,N/A,,Scattered Clouds,250,2013-03-03 22:56:00
3:12 PM,53.6,44.6,72,30.08,9.0,West,20.7,-,N/A,,Mostly Cloudy,260,2013-03-03 23:12:00
3:56 PM,52.0,45.0,77,30.08,9.0,West,17.3,29.9,N/A,,Mostly Cloudy,260,2013-03-03 23:56:00
4:56 PM,51.1,44.1,77,30.08,9.0,WSW,15.0,-,N/A,,Mostly Cloudy,250,2013-03-04 00:56:00
5:56 PM,50.0,44.1,80,30.09,9.0,West,19.6,25.3,N/A,,Overcast,280,2013-03-04 01:56:00
6:56 PM,50.0,43.0,77,30.09,9.0,West,16.1,-,N/A,,Overcast,270,2013-03-04 02:56:00
7:56 PM,50.0,43.0,77,30.10,9.0,West,16.1,24.2,N/A,,Overcast,270,2013-03-04 03:56:00
8:56 PM,50.0,43.0,77,30.11,9.0,West,13.8,-,N/A,,Overcast,260,2013-03-04 04:56:00
9:56 PM,50.0,43.0,77,30.12,9.0,West,13.8,-,N/A,,Overcast,260,2013-03-04 05:56:00
10:56 PM,48.9,43.0,80,30.12,9.0,West,12.7,-,N/A,,Overcast,270,2013-03-04 06:56:00
11:56 PM,48.9,43.0,80,30.11,10.0,Variable,6.9,-,N/A,,Overcast,0,2013-03-04 07:56:00